TimeWET,TemperatureF,Dew PointF,Humidity,Sea Level PressureIn,VisibilityMPH,Wind Direction,Wind SpeedMPH,Gust SpeedMPH,PrecipitationIn,Events,Conditions,WindDirDegrees,DateUTC
12:00 AM,61,55,76,29.98,5,South,8.1,,,,Mostly Cloudy,180,2012-11-10 00:00:00
12:00 AM,60.8,55.4,82,29.98,5.0,South,8.1,-,N/A,,Mostly Cloudy,180,2012-11-10 00:00:00
12:30 AM,60.8,55.4,82,29.95,5.0,South,6.9,-,N/A,,Mostly Cloudy,180,2012-11-10 00:30:00
1:00 AM,60.8,55.4,82,29.95,5.0,South,8.1,-,N/A,,Mostly Cloudy,190,2012-11-10 01:00:00
1:30 AM,60.8,53.6,77,29.95,2.2,South,4.6,-,N/A,,Mostly Cloudy,180,2012-11-10 01:30:00
2:00 AM,60.8,53.6,77,29.95,-9999.0,South,5.8,-,N/A,,Mostly Cloudy,190,2012-11-10 02:00:00
2:30 AM,60.8,53.6,77,29.92,-9999.0,South,10.4,-,N/A,,Unknown,190,2012-11-10 02:30:00
2:45 AM,59.0,53.6,82,29.95,3.7,SSW,9.2,-,N/A,Thunderstorm,Thunderstorm,200,2012-11-10 02:45:00
3:00 AM,59,54,79,29.96,4,SSW,9.2,,,Thunderstorm,Thunderstorm,210,2012-11-10 03:00:00
3:00 AM,59.0,53.6,82,29.95,3.7,SSW,9.2,-,N/A,Thunderstorm,Thunderstorm,210,2012-11-10 03:00:00
3:30 AM,59.0,55.4,88,29.95,1.6,SW,10.4,-,N/A,Thunderstorm,Thunderstorm,230,2012-11-10 03:30:00
4:00 AM,57.2,53.6,88,29.95,1.6,SW,4.6,-,N/A,Thunderstorm,Thunderstorm,220,2012-11-10 04:00:00
4:30 AM,57.2,53.6,88,29.95,1.9,South,3.5,-,N/A,,Unknown,190,2012-11-10 04:30:00
5:00 AM,55.4,53.6,94,29.95,3.7,ESE,3.5,-,N/A,Thunderstorm,Thunderstorm,120,2012-11-10 05:00:00
5:05 AM,55.4,53.6,94,29.98,3.7,Variable,2.3,-,N/A,,Partly Cloudy,0,2012-11-10 05:05:00
5:30 AM,55.4,53.6,94,29.98,3.7,Variable,1.2,-,N/A,,Partly Cloudy,0,2012-11-10 05:30:00
6:00 AM,56,53,85,29.99,2,SSE,2.3,,,Rain,Heavy Rain Showers,150,2012-11-10 06:00:00
6:00 AM,55.4,53.6,94,29.98,1.9,Variable,1.2,-,N/A,Rain,Rain Showers,0,2012-11-10 06:00:00
6:30 AM,57.2,53.6,88,29.98,1.9,South,11.5,-,N/A,Rain,Rain Showers,190,2012-11-10 06:30:00
7:00 AM,57.2,53.6,88,29.98,3.1,South,8.1,-,N/A,Rain,Light Rain Showers,190,2012-11-10 07:00:00
7:30 AM,57.2,53.6,88,29.98,3.7,Variable,2.3,-,N/A,,Partly Cloudy,0,2012-11-10 07:30:00
8:00 AM,57.2,53.6,88,29.98,3.1,Variable,2.3,-,N/A,Rain,Light Rain Showers,0,2012-11-10 08:00:00
8:30 AM,57.2,53.6,88,30.01,3.1,South,3.5,-,N/A,,Partly Cloudy,170,2012-11-10 08:30:00
9:00 AM,58,55,85,30.02,3,SSE,2.3,,,Rain,Light Rain Showers,150,2012-11-10 09:00:00
9:00 AM,57.2,55.4,94,30.01,3.1,Variable,2.3,-,N/A,,Partly Cloudy,0,2012-11-10 09:00:00
9:30 AM,60.8,57.2,88,30.01,5.0,Variable,2.3,-,N/A,,Mostly Cloudy,0,2012-11-10 09:30:00
10:00 AM,60.8,55.4,82,30.01,5.0,South,4.6,-,N/A,,Mostly Cloudy,190,2012-11-10 10:00:00
10:30 AM,62.6,57.2,82,30.04,5.0,SSW,3.5,-,N/A,,Mostly Cloudy,210,2012-11-10 10:30:00
11:00 AM,62.6,57.2,82,30.01,5.0,SW,6.9,-,N/A,,Mostly Cloudy,220,2012-11-10 11:00:00
11:30 AM,64.4,57.2,77,30.01,5.0,SW,6.9,-,N/A,,Mostly Cloudy,230,2012-11-10 11:30:00
12:00 PM,66,58,69,30.02,5,SW,9.2,,,,Partly Cloudy,230,2012-11-10 12:00:00
12:00 PM,66.2,59.0,78,30.01,5.0,SW,9.2,-,N/A,,Mostly Cloudy,230,2012-11-10 12:00:00
12:30 PM,66.2,57.2,73,30.01,5.0,WSW,10.4,-,N/A,,Mostly Cloudy,240,2012-11-10 12:30:00
1:00 PM,66.2,57.2,73,29.98,5.0,WSW,11.5,-,N/A,,Mostly Cloudy,240,2012-11-10 13:00:00
1:30 PM,64.4,57.2,77,29.98,5.0,WSW,12.7,-,N/A,,Mostly Cloudy,240,2012-11-10 13:30:00
2:00 PM,64.4,57.2,77,29.98,5.0,WSW,11.5,-,N/A,,Mostly Cloudy,240,2012-11-10 14:00:00
2:30 PM,66.2,57.2,73,29.98,6.2,West,11.5,-,N/A,,Mostly Cloudy,260,2012-11-10 14:30:00
3:00 PM,64,54,62,29.98,6,West,11.5,,,,Mostly Cloudy,270,2012-11-10 15:00:00
3:00 PM,64.4,53.6,68,29.98,6.2,West,11.5,-,N/A,,Mostly Cloudy,270,2012-11-10 15:00:00
3:30 PM,66.2,53.6,64,29.98,6.2,WNW,10.4,-,N/A,,Mostly Cloudy,290,2012-11-10 15:30:00
4:00 PM,64.4,53.6,68,29.98,6.2,West,9.2,-,N/A,,Mostly Cloudy,280,2012-11-10 16:00:00
4:30 PM,64.4,53.6,68,29.98,6.2,West,11.5,-,N/A,,Mostly Cloudy,280,2012-11-10 16:30:00
5:00 PM,62.6,51.8,68,29.98,6.2,WNW,11.5,-,N/A,,Mostly Cloudy,290,2012-11-10 17:00:00
5:30 PM,62.6,53.6,72,30.01,6.2,WNW,11.5,-,N/A,,Mostly Cloudy,290,2012-11-10 17:30:00
6:00 PM,63,52,59,30.01,5,WNW,11.5,,,,Overcast,290,2012-11-10 18:00:00
6:00 PM,62.6,51.8,68,30.01,5.0,WNW,11.5,-,N/A,,Mostly Cloudy,290,2012-11-10 18:00:00
7:00 PM,62.6,51.8,68,30.01,5.0,West,9.2,-,N/A,,Mostly Cloudy,270,2012-11-10 19:00:00
7:30 PM,-9999,-9999,N/A,30.01,2.5,WSW,13.8,-,N/A,Rain,Light Rain,250,2012-11-10 19:30:00
8:00 PM,60.8,55.4,82,30.01,2.5,WSW,8.1,-,N/A,Rain,Light Rain,250,2012-11-10 20:00:00
8:30 PM,60.8,57.2,88,30.01,2.5,SSW,6.9,-,N/A,Rain,Light Rain,210,2012-11-10 20:30:00
9:00 PM,62,57,77,30.01,3,West,11.5,,,Rain,Light Rain,270,2012-11-10 21:00:00
9:00 PM,62.6,57.2,82,30.01,3.1,West,11.5,-,N/A,Rain,Light Rain,270,2012-11-10 21:00:00
9:30 PM,62.6,57.2,82,30.01,3.1,West,12.7,-,N/A,,Mostly Cloudy,260,2012-11-10 21:30:00
10:00 PM,62.6,57.2,82,30.01,3.1,West,17.3,-,N/A,Rain,Rain,280,2012-11-10 22:00:00
11:00 PM,-9999,-9999,N/A,29.98,3.1,West,18.4,-,N/A,Rain,Rain,270,2012-11-10 23:00:00
11:30 PM,62.6,55.4,77,29.98,3.1,West,18.4,-,N/A,,Mostly Cloudy,280,2012-11-10 23:30:00